| time (UTC) | temp F | wind direction | speed MPH | gust MPH | rain 1hr in | rain 24hr in | rain mn in | humidity % | barometer mb |
| 20260505124517 | 51 | 291 | 0.0 | 6.0 | 0.00 | 0.00 | 0.00 | 68 | 1011.4 |
| 20260505123019 | 52 | 350 | 1.0 | 6.0 | 0.00 | 0.00 | 0.00 | 67 | 1011.5 |
| 20260505121515 | 52 | 360 | 2.0 | 7.0 | 0.00 | 0.00 | 0.00 | 70 | 1011.5 |
| 20260505120005 | 52 | 319 | 0.0 | 6.0 | 0.00 | 0.00 | 0.00 | 70 | 1011.5 |
| 20260505114502 | 52 | 338 | 0.0 | 4.0 | 0.00 | 0.00 | 0.00 | 68 | 1011.5 |
| 20260505113007 | 52 | 321 | 1.0 | 7.0 | 0.00 | 0.00 | 0.00 | 68 | 1011.5 |
| 20260505111501 | 52 | 306 | 0.0 | 4.0 | 0.00 | 0.00 | 0.00 | 68 | 1011.4 |
| 20260505101554 | 52 | 342 | 1.0 | 4.0 | 0.00 | 0.00 | 0.00 | 71 | 1011.4 |
| 20260505100043 | 52 | 360 | 0.0 | 5.0 | 0.00 | 0.00 | 0.00 | 72 | 1011.5 |
| 20260505094538 | 52 | 292 | 0.0 | 6.0 | 0.00 | 0.00 | 0.00 | 73 | 1011.5 |
| 20260505093043 | 51 | 9 | 0.0 | 5.0 | 0.00 | 0.00 | 0.00 | 74 | 1011.5 |
| 20260505091541 | 51 | 307 | 0.0 | 4.0 | 0.00 | 0.00 | 0.00 | 74 | 1011.4 |
| 20260505090045 | 52 | 324 | 1.0 | 6.0 | 0.00 | 0.00 | 0.00 | 75 | 1011.4 |
| 20260505084531 | 51 | 313 | 0.0 | 4.0 | 0.00 | 0.00 | 0.00 | 76 | 1011.4 |
| 20260505083028 | 51 | 301 | 0.0 | 2.0 | 0.00 | 0.00 | 0.00 | 75 | 1011.1 |
| 20260505081535 | 51 | 348 | 0.0 | 4.0 | 0.00 | 0.00 | 0.00 | 75 | 1011.2 |
| 20260505080011 | 51 | 360 | 0.0 | 5.0 | 0.00 | 0.00 | 0.00 | 77 | 1011.1 |
| 20260505074510 | 50 | 33 | 0.0 | 3.0 | 0.00 | 0.00 | 0.00 | 79 | 1011.0 |
| 20260505073010 | 49 | 313 | 0.0 | 5.0 | 0.00 | 0.00 | 0.00 | 80 | 1011.0 |
| 20260505071505 | 50 | 300 | 0.0 | 2.0 | 0.00 | 0.00 | 0.00 | 78 | 1010.9 |
| 20260505070003 | 50 | 39 | 0.0 | 2.0 | 0.00 | 0.00 | 0.00 | 75 | 1010.9 |
| 20260505064600 | 49 | 360 | 0.0 | 1.0 | 0.00 | 0.00 | 0.00 | 77 | 1010.9 |
| 20260505063101 | 49 | 315 | 0.0 | 4.0 | 0.00 | 0.00 | 0.00 | 79 | 1010.9 |
| 20260505061601 | 48 | 288 | 0.0 | 0.0 | 0.00 | 0.00 | 0.00 | 81 | 1010.9 |
| 20260505060054 | 48 | 286 | 0.0 | 3.0 | 0.00 | 0.00 | 0.00 | 81 | 1011.0 |
| 20260505054543 | 48 | 281 | 0.0 | 5.0 | 0.00 | 0.00 | 0.00 | 82 | 1010.9 |
| 20260505053040 | 48 | 281 | 0.0 | 1.0 | 0.00 | 0.00 | 0.00 | 83 | 1010.8 |
| 20260505051538 | 47 | 291 | 0.0 | 1.0 | 0.00 | 0.00 | 0.00 | 85 | 1010.8 |
| 20260505050116 | 46 | 265 | 0.0 | 1.0 | 0.00 | 0.00 | 0.00 | 86 | 1010.9 |
| 20260505041547 | 46 | 266 | 0.0 | 0.0 | 0.00 | 0.00 | 0.00 | 86 | 1010.7 |
| 20260505040029 | 46 | 266 | 0.0 | 1.0 | 0.00 | 0.00 | 0.00 | 86 | 1010.6 |
| 20260505034516 | 46 | 259 | 0.0 | 1.0 | 0.00 | 0.00 | 0.00 | 86 | 1010.6 |
| 20260505033014 | 46 | 261 | 0.0 | 1.0 | 0.00 | 0.00 | 0.00 | 87 | 1010.6 |
| 20260505031513 | 46 | 259 | 0.0 | 3.0 | 0.00 | 0.00 | 0.00 | 87 | 1010.6 |
| 20260505030010 | 46 | 267 | 0.0 | 0.0 | 0.00 | 0.00 | 0.00 | 88 | 1010.6 |
| 20260505024508 | 45 | 267 | 0.0 | 4.0 | 0.00 | 0.00 | 0.00 | 88 | 1010.6 |
| 20260505023007 | 45 | 227 | 0.0 | 1.0 | 0.00 | 0.02 | 0.00 | 89 | 1010.7 |
| 20260505021508 | 45 | 227 | 0.0 | 0.0 | 0.00 | 0.02 | 0.00 | 88 | 1010.9 |
| 20260505020009 | 45 | 227 | 0.0 | 0.0 | 0.00 | 0.02 | 0.00 | 88 | 1010.9 |
| 20260505014606 | 45 | 227 | 0.0 | 0.0 | 0.00 | 0.02 | 0.00 | 89 | 1011.0 |
| 20260505013054 | 45 | 226 | 0.0 | 1.0 | 0.00 | 0.02 | 0.00 | 89 | 1011.0 |
| 20260505011600 | 45 | 228 | 0.0 | 0.0 | 0.00 | 0.02 | 0.00 | 89 | 1011.1 |
| 20260505010055 | 45 | 227 | 0.0 | 2.0 | 0.00 | 0.02 | 0.00 | 89 | 1011.0 |
| 20260505004553 | 44 | 219 | 0.0 | 2.0 | 0.00 | 0.02 | 0.00 | 90 | 1011.1 |
| 20260505003052 | 44 | 220 | 0.0 | 1.0 | 0.00 | 0.03 | 0.00 | 90 | 1011.1 |
| 20260505001603 | 44 | 217 | 0.0 | 6.0 | 0.00 | 0.03 | 0.00 | 90 | 1011.1 |
| 20260505000113 | 44 | 292 | 0.0 | 0.0 | 0.00 | 0.03 | 0.00 | 90 | 1011.2 |
| 20260504234553 | 44 | 292 | 0.0 | 0.0 | 0.00 | 0.03 | 0.00 | 90 | 1011.1 |
| 20260504233040 | 44 | 292 | 0.0 | 0.0 | 0.00 | 0.06 | 0.00 | 90 | 1011.2 |
| 20260504231537 | 44 | 315 | 0.0 | 1.0 | 0.00 | 0.06 | 0.00 | 90 | 1011.2 |
| 20260504230036 | 44 | 317 | 0.0 | 0.0 | 0.00 | 0.06 | 0.00 | 90 | 1011.3 |
| 20260504224534 | 45 | 317 | 0.0 | 0.0 | 0.00 | 0.06 | 0.00 | 90 | 1011.3 |
| 20260504223041 | 45 | 317 | 0.0 | 0.0 | 0.00 | 0.13 | 0.00 | 90 | 1011.3 |
| 20260504221536 | 45 | 317 | 0.0 | 0.0 | 0.00 | 0.13 | 0.00 | 90 | 1011.3 |
| 20260504220033 | 45 | 317 | 0.0 | 1.0 | 0.00 | 0.13 | 0.00 | 91 | 1011.3 |
| 20260504214523 | 45 | 317 | 0.0 | 1.0 | 0.00 | 0.13 | 0.00 | 90 | 1011.4 |
| 20260504213043 | 45 | 245 | 0.0 | 0.0 | 0.00 | 0.16 | 0.00 | 90 | 1011.4 |
| 20260504211520 | 44 | 360 | 0.0 | 0.0 | 0.00 | 0.16 | 0.00 | 90 | 1011.4 |
| 20260504210019 | 45 | 246 | 0.0 | 0.0 | 0.00 | 0.16 | 0.00 | 89 | 1011.4 |
| 20260504204517 | 45 | 246 | 0.0 | 0.0 | 0.00 | 0.16 | 0.00 | 88 | 1011.3 |
| 20260504203013 | 46 | 246 | 0.0 | 0.0 | 0.00 | 0.19 | 0.00 | 87 | 1011.3 |
| 20260504201515 | 47 | 246 | 0.0 | 0.0 | 0.00 | 0.19 | 0.00 | 87 | 1011.2 |
| 20260504200010 | 48 | 360 | 0.0 | 0.0 | 0.00 | 0.19 | 0.00 | 86 | 1011.2 |
| 20260504194605 | 47 | 360 | 0.0 | 1.0 | 0.00 | 0.19 | 0.00 | 84 | 1011.0 |
| 20260504193101 | 48 | 360 | 0.0 | 0.0 | 0.00 | 0.19 | 0.00 | 82 | 1011.1 |
| 20260504191551 | 50 | 360 | 0.0 | 0.0 | 0.00 | 0.19 | 0.00 | 79 | 1010.9 |
| 20260504190100 | 51 | 360 | 0.0 | 1.0 | 0.00 | 0.19 | 0.00 | 77 | 1010.9 |
| 20260504184553 | 52 | 360 | 0.0 | 0.0 | 0.00 | 0.19 | 0.00 | 75 | 1010.9 |
| 20260504183046 | 53 | 244 | 0.0 | 1.0 | 0.00 | 0.19 | 0.00 | 74 | 1010.8 |
| 20260504181545 | 53 | 360 | 0.0 | 3.0 | 0.00 | 0.19 | 0.00 | 72 | 1010.7 |
| 20260504180047 | 54 | 360 | 1.0 | 5.0 | 0.00 | 0.19 | 0.00 | 67 | 1010.6 |
| 20260504174531 | 55 | 360 | 2.0 | 8.0 | 0.00 | 0.19 | 0.00 | 60 | 1010.5 |
| 20260504173042 | 55 | 360 | 3.0 | 9.0 | 0.00 | 0.19 | 0.00 | 55 | 1010.6 |
| 20260504171532 | 56 | 360 | 3.0 | 9.0 | 0.00 | 0.19 | 0.00 | 53 | 1010.6 |